Regional Weather Roundup
Issued by NWS

Home | Current Version | Previous Version | Text Only | Print | Product List | Glossary On
Versions: 1 2 3 4 5 6 7 8 9 10 11 12 13 14 15 16 17 18 19 20 21 22 23 24 25 26 27 28 29 30 31 32 33 34 35 36 37 38 39 40 41 42 43 44 45 46 47 48 49 50
000
ASUS45 KREV 020610
RWRNV
NEVADA REGIONAL WEATHER ROUNDUP
NATIONAL WEATHER SERVICE RENO NV
1100 PM PDT MON SEP 01 2014

NOTE: "FAIR" INDICATES FEW OR NO CLOUDS BELOW 12,000 FEET WITH NO
SIGNIFICANT WEATHER AND/OR OBSTRUCTIONS TO VISIBILITY.

NVZ001-003-004-020700-
WESTERN NEVADA

CITY           SKY/WX    TMP DP  RH WIND       PRES   REMARKS
RENO           CLEAR     73  35  25 W8        30.01S
6HR MIN TEMP:  72; 6HR MAX TEMP:  90;

CARSON CITY    FAIR      66  32  28 CALM      30.03S
MINDEN           N/A     61  37  41 E5        30.04
SLIDE MTN        N/A     55  32  41 NE9         N/A
PYRAMID LAKE     N/A     77 N/A N/A W8          N/A
FALLON         CLEAR     66  32  28 NW6       29.96S
6HR MIN TEMP:  64; 6HR MAX TEMP:  90;

LOVELOCK       CLEAR     64  29  26 S5        29.97S
6HR MIN TEMP:  63; 6HR MAX TEMP:  89;

HAWTHORNE      CLEAR     75  36  23 CALM      29.98S
$$

NVZ002-CAZ072-073-020700-
NORTHERN AND CENTRAL SIERRA

CITY           SKY/WX    TMP DP  RH WIND       PRES   REMARKS
S. LAKE TAHOE  CLEAR     57  38  48 CALM      30.14S
6HR MIN TEMP:  57; 6HR MAX TEMP:  83;

TRUCKEE        CLEAR     54  37  54 CALM      30.13S
SQUAW VLY 8000 NOT AVBL
SUSANVILLE     CLEAR     63  32  31 CALM      30.00R
BLUE CANYON    CLEAR     71  37  28 CALM      30.08F
MAMMOTH LAKES  FAIR      59  28  31 N3        30.20R
BRIDGEPORT     FAIR      57  30  35 CALM      30.17S
$$

NVZ030-031-036-020700-
NORTHERN NEVADA

CITY           SKY/WX    TMP DP  RH WIND       PRES   REMARKS
ELKO           CLEAR     58  28  32 CALM      30.06S
6HR MIN TEMP:  58; 6HR MAX TEMP:  83;

WINNEMUCCA     CLEAR     55  25  31 NW3       30.01F
6HR MIN TEMP:  52; 6HR MAX TEMP:  86;

WENDOVER       CLEAR     68  36  30 CALM      30.03S
$$

NVZ035-037-020700-
CENTRAL NEVADA

CITY           SKY/WX    TMP DP  RH WIND       PRES   REMARKS
ELY            CLEAR     53  32  44 S3        30.13R
6HR MIN TEMP:  53; 6HR MAX TEMP:  85;

EUREKA           N/A     52  32  46 SW3       30.11R
6HR MIN TEMP:  52; 6HR MAX TEMP:  85;

$$

NVZ013-014-020700-
SOUTH CENTRAL NEVADA

CITY           SKY/WX    TMP DP  RH WIND       PRES   REMARKS
TONOPAH        CLEAR     68  21  16 E7        30.06R
6HR MIN TEMP:  68; 6HR MAX TEMP:  90;

$$

NVZ017-020-022-020700-
SOUTHERN NEVADA

CITY           SKY/WX    TMP DP  RH WIND       PRES   REMARKS
LAS VEGAS      CLEAR     92  33  12 S13       29.78R
6HR MIN TEMP:  92; 6HR MAX TEMP: 105;

N. LAS VEGAS   CLEAR     92  34  13 S7        29.81R
6HR MIN TEMP:  90; 6HR MAX TEMP: 103;

NELLIS AFB     CLEAR     92  37  14 S7        29.79R
6HR MIN TEMP:  92; 6HR MAX TEMP: 103;

HENDERSON      CLEAR     89  35  14 S10       29.85S
6HR MIN TEMP:  89; 6HR MAX TEMP: 104;

MERCURY        CLEAR     80  29  15 NE3       29.89R
6HR MIN TEMP:  78; 6HR MAX TEMP:  99;

$$



USA.gov is the U.S. government's official web portal to all federal, state and local government web resources and services.